User: anonymous   Login
Location: Bittkow
(50.3000°N, 19.0000°E)
Time: 23:49:56
(UTC+00:00)
Language:

Meteor 2-6 Rocket - Orbit

View from above orbital plane
View from above orbital plane
View from above satellite
View from above satellite

Ground track
Ground track

The orbit data is extracted from the following two-line orbital elements,

1 11963U 80073B   20332.53439397 -.00000032 +00000-0 -25194-4 0  9993
2 11963 081.2752 343.6933 0074745 113.2781 247.6281 14.09720509067693
Epoch (UTC): 27 November 2020 12:49:31
Eccentricity: 0.0074745
inclination: 81.2752°
perigee height: 806 km
apogee height: 914 km
right ascension of ascending node: 343.6933°
argument of perigee: 113.2781°
revolutions per day: 14.09720509
mean anomaly at epoch: 247.6281°
orbit number at epoch: 6769

The dashed part of the orbit path shows where the satellite is in the earth's shadow,  

DLR